{"data":{"norad_id":65656,"epoch":"2026-09-18T21:52:36.759648Z","epoch_age_seconds":245969,"freshness":"STALE","line1":"1 65656U 25211E   26261.91153657  .00008999  00000+0  28074-3 0  9991","line2":"2 65656  97.2833 302.2165 0001554  96.8885 263.2534 15.33444280 56280","mean_motion":15.3344428,"eccentricity":0.0001554,"inclination_deg":97.2833,"raan_deg":302.2165,"arg_perigee_deg":96.8885,"mean_anomaly_deg":263.2534,"bstar":0.00028074,"rev_number":5628,"period_min":93.906248748732,"perigee_km":464.48180846039,"apogee_km":466.60882492442,"semimajor_km":6843.6823166924,"source":"CELESTRAK","updated_at":"2026-09-21T09:00:35.679885Z"}}